Monte Terminillo, Italy

1:49 PM CEST on March 28, 2017 (GMT +0200)
Monte Terminillo

Weather History for LIRK - December, 2012

Change the Weather History Date:

Monday, December 31, 2012

  Actual Average Record
Temperature  
Mean Temperature 36 °F -  
Max Temperature 41 °F 31 °F 46 °F (2015)
Min Temperature 32 °F 24 °F 4 °F (2014)
Degree Days  
Heating Degree Days 28    
Moisture  
Dew Point 22 °F    
Average Humidity 57    
Maximum Humidity 65    
Minimum Humidity 43    
Precipitation  
Precipitation 0.00 in -13.12 in - ()
Sea Level Pressure  
Sea Level Pressure 30.16 in    
Wind  
Wind Speed 3 mph ()    
Max Wind Speed 9 mph    
Max Gust Speed -    
Visibility 9.2 miles    
Events      
Averages and records for this station are not official NWS values.
T = Trace of Precipitation, MM = Missing Value Source: Averaged Metar Reports

Daily Weather History Graph

Daily Weather History Graph

Search for Another Location

Airport or City:

Trip Planner

Search our weather history database for the weather conditions in past years. The results will help you decide how hot, cold, wet, or windy it might be!

Date:

Astronomy

Dec. 31, 2012 Rise Set
Actual Time 7:37 AM CET 4:45 PM CET
Civil Twilight 7:05 AM CET 5:16 PM CET
Nautical Twilight 6:30 AM CET 5:52 PM CET
Astronomical Twilight 5:56 AM CET 6:26 PM CET
Moon 8:02 PM CET (12/31) 9:06 AM CET (12/31)
Length of Visible Light 10h 11m
Length of Day
9h 07m
Waning Gibbous, 92% of the Moon is Illuminated
Dec 31
Waning Gibbous
Jan 5
Last Quarter
Jan 11
New
Jan 19
First Quarter
Jan 27
Full

Hourly Weather History & Observations

Time (CET) Temp. Dew Point Humidity Pressure Visibility Wind Dir Wind Speed Gust Speed Precip Events Conditions
12:55 AM 35.6 °F 24.8 °F 65% 30.18 in - North - - N/A   Clear
1:00 AM 35 °F 24 °F 52%  in 6 mi Calm Calm - -  
1:55 AM 35.6 °F 23.0 °F 60% 30.18 in - North - - N/A   Clear
2:55 AM 33.8 °F 23.0 °F 65% 30.18 in - North - - N/A   Clear
3:55 AM 33.8 °F 23.0 °F 65% 30.18 in - North - - N/A   Clear
5:55 AM 33.8 °F 23.0 °F 65% 30.18 in - North - - N/A   Partly Cloudy
6:55 AM 32.0 °F 21.2 °F 64% 30.18 in - North - - N/A   Scattered Clouds
7:00 AM 32 °F 21 °F 53%  in 6 mi NNE 9.2 mph - -  
7:55 AM 32.0 °F 19.4 °F 60% 30.18 in - North - - N/A   Partly Cloudy
8:55 AM 32.0 °F 15.8 °F 51% 30.18 in - North - - N/A   Clear
9:55 AM 33.8 °F 19.4 °F 56% 30.18 in - North - - N/A   Clear
10:55 AM 35.6 °F 23.0 °F 60% 30.21 in - North - - N/A   Clear
11:55 AM 35.6 °F 23.0 °F 60% 30.21 in - North - - N/A   Clear
1:00 PM 36 °F 22 °F 45%  in 19 mi NE 4.6 mph - -  
1:55 PM 37.4 °F 24.8 °F 60% 30.15 in - North - - N/A   Clear
2:55 PM 41.0 °F 28.4 °F 61% 30.15 in - North - - N/A   Clear
3:55 PM 41.0 °F 28.4 °F 61% 30.15 in - North - - N/A   Clear
4:55 PM 41.0 °F 26.6 °F 57% 30.12 in - North - - N/A   Clear
5:55 PM 37.4 °F 23.0 °F 56% 30.12 in - North - - N/A   Clear
6:55 PM 35.6 °F 21.2 °F 56% 30.12 in - North - - N/A   Clear
7:00 PM 36 °F 22 °F 43%  in 6 mi NE 4.6 mph - -  
7:55 PM 35.6 °F 19.4 °F 52% 30.12 in - North - - N/A   Clear
8:55 PM 33.8 °F 17.6 °F 52% 30.12 in - North - - N/A   Clear
9:55 PM 33.8 °F 17.6 °F 52% 30.12 in - North - - N/A   Clear